Location: Observatory Park - Geauga Park District
(41.5832°N, 81.0716°W)
Time: 13:07:48
(UTC-05:00)

ISS - Visible Passes

Search period start: 27 January 2021 00:00
Search period end: 06 February 2021 00:00
Orbit: 418 x 421 km, 51.6° (Epoch: 28 January)

Date Brightness Start Highest point End Pass type
(mag) Time Alt. Az. Time Alt. Az. Time Alt. Az.
27 Jan -1.6 18:13:04 10° NW 18:15:18 16° N 18:17:32 10° NNE visible
27 Jan -0.8 19:50:45 10° NNW 19:51:07 12° NNW 19:51:07 12° NNW visible
28 Jan -1.6 19:03:24 10° NNW 19:05:31 15° N 19:05:44 15° N visible
29 Jan -1.5 18:15:54 10° NW 18:17:56 15° N 18:19:57 10° NE visible
29 Jan -1.0 19:52:43 10° NW 19:53:21 14° NNW 19:53:21 14° NNW visible
30 Jan -2.0 19:05:28 10° NW 19:08:02 20° NNE 19:08:02 20° NNE visible
31 Jan -1.8 18:18:10 10° NNW 18:20:30 17° NNE 18:22:46 10° NE visible
31 Jan -1.4 19:54:36 10° NW 19:55:46 19° NW 19:55:46 19° NW visible
01 Feb -3.0 19:07:18 10° NW 19:10:27 35° NNE 19:10:35 35° NNE visible
02 Feb -2.5 18:20:01 10° NW 18:22:55 26° NNE 18:25:30 12° ENE visible
02 Feb -1.8 19:56:37 10° WNW 19:58:30 29° WNW 19:58:30 29° WNW visible
03 Feb -3.9 19:09:10 10° NW 19:12:33 85° NNE 19:13:34 42° ESE visible
04 Feb -3.5 18:21:49 10° NW 18:25:07 52° NNE 18:28:26 10° ESE visible
04 Feb -1.3 19:59:12 10° W 20:01:41 19° SW 20:01:51 19° SW visible
05 Feb -2.0 19:11:22 10° WNW 19:14:25 32° SW 19:17:21 11° SSE visible
